This is the latest recevied weather packets stored in our database for station/object G4GVZ-1. If no packets are shown the sender has not sent any weather packets the latest 10 day(s).
| Time | Temp. | Humidity | Pressure | Rain* | Wind** | Luminosity | Snow |
|---|---|---|---|---|---|---|---|
| 1777317351 | 15.56° C | 61% | 1023.2 hPa | 0 mm | - | - | - |
| 1777316450 | 16.67° C | 59% | 1023 hPa | 0 mm | - | - | - |
| 1777315551 | 17.22° C | 56% | 1022.8 hPa | 0 mm | - | - | - |
| 1777314651 | 17.78° C | 54% | 1022.7 hPa | 0 mm | - | - | - |
| 1777313751 | 18.33° C | 57% | 1022.5 hPa | 0 mm | - | - | - |
| 1777312853 | 18.33° C | 56% | 1022.3 hPa | 0 mm | - | - | - |
| 1777311952 | 18.33° C | 55% | 1022.4 hPa | 0 mm | - | - | - |
| 1777311052 | 18.33° C | 55% | 1022.4 hPa | 0 mm | - | - | - |
| 1777310152 | 18.33° C | 56% | 1022.3 hPa | 0 mm | - | - | - |
| 1777309251 | 18.33° C | 56% | 1022.2 hPa | 0 mm | - | - | - |
| 1777308351 | 18.33° C | 56% | 1022.5 hPa | 0 mm | - | - | - |
| 1777307451 | 18.89° C | 56% | 1022.7 hPa | 0 mm | - | - | - |
| 1777306550 | 18.89° C | 53% | 1022.5 hPa | 0 mm | - | - | - |
| 1777305650 | 20° C | 51% | 1022.5 hPa | 0 mm | - | - | - |
| 1777304752 | 20° C | 51% | 1022.5 hPa | 0 mm | - | - | - |
| 1777303851 | 20° C | 49% | 1022.6 hPa | 0 mm | - | - | - |
| 1777302951 | 20° C | 47% | 1022.7 hPa | 0 mm | - | - | - |
| 1777302053 | 20° C | 49% | 1022.8 hPa | 0 mm | - | - | - |
| 1777301149 | 20.56° C | 44% | 1022.9 hPa | 0 mm | - | - | - |
| 1777300249 | 20.56° C | 47% | 1022.9 hPa | 0 mm | - | - | - |
| 1777299349 | 20.56° C | 47% | 1023 hPa | 0 mm | - | - | - |
| 1777298448 | 20.56° C | 42% | 1023.2 hPa | 0 mm | - | - | - |
| 1777297548 | 20.56° C | 44% | 1023.3 hPa | 0 mm | - | - | - |
| 1777296647 | 20.56° C | 44% | 1023.4 hPa | 0 mm | - | - | - |
| 1777295747 | 20.56° C | 40% | 1023.4 hPa | 0 mm | - | - | - |
* Rain latest hour (hover to see other rain measurements)
** Current wind speed in m/s (hover to see current wind gust speed)